EHI
23 9 0 0 0 0 0 0 0 0 0 0 0 0 0 0 0 0 0 0 0 0 0 0 0 0 0 0 0 0 0 0 0 0 0 0 0 0 0 0 0 0 0 0 1 1 1 0 0
16 7 0 0 0 0 0 0 0 0 0 0 0 0 0 0 0 0 0 0 0 0 0 0 0 0 0 0 0 0 0 0 0 0 0 0 0 0 0 0 0 0 1 1 0 0 0 0 0
10 4 0 0 0 0 0 0 0 0 0 0 0 0 0 0 0 0 0 0 0 0 0 0 0 0 0 0 0 0 0 0 0 0 0 0 0 0 0 0 1 1 2 2 1 1 0 0 0
4 2 0 0 0 0 0 0 0 0 0 0 0 0 0 0 0 0 0 0 0 0 0 1 2 1 0 0 0 0 0 0 0 0 0 0 0 0 0 0 1 2 3 3 2 1 0 0 0
0 0 0 0 0 0 0 0 0 0 0 0 0 0 0 0 0 0 0 0 0 0 0 1 2 1 0 0 0 0 0 0 0 0 0 0 0 0 0 0 1 3 3 2 1 1 0 0 0
0 0 0 0 0 0 0 0 0 0 0 0 0 0 0 0 0 0 0 0 0 0 0 0 1 0 0 0 0 0 0 0 0 0 0 0 0 0 0 0 1 2 2 1 0 0 0 0 0
0 0 0 0 0 0 0 0 0 0 0 0 0 0 0 0 0 0 0 0 0 0 0 0 0 0 0 0 0 0 0 0 0 0 0 0 0 0 0 0 0 1 1 0 0 0 0 0 0
0 0 0 0 0 0 0 0 0 0 0 0 0 0 0 0 1 2 1 0 0 0 0 0 0 0 0 0 0 0 0 0 0 0 0 0 0 0 0 0 0 0 0 0 0 0 0 0 0
0 0 0 0 0 0 0 0 0 0 0 0 0 0 0 2 5 5 2 0 0 0 0 0 0 0 0 0 0 0 0 0 0 0 0 0 0 0 0 0 0 0 0 0 0 0 0 0 0
0 0 0 0 0 0 0 0 0 0 0 0 0 0 0 2 6 5 1 0 0 0 0 0 0 0 0 0 0 0 0 0 0 0 0 0 0 0 0 0 0 0 0 0 0 0 0 0 0
0 0 0 0 0 0 0 0 0 0 0 0 0 0 0 2 3 2 0 0 0 0 0 0 0 0 0 0 0 0 0 0 0 0 0 0 0 0 0 0 0 0 0 0 0 0 0 0 0
0 0 0 0 0 0 0 0 0 0 0 0 0 0 0 0 0 0 0 0 0 0 0 0 0 0 0 0 0 0 0 0 0 0 0 0 0 0 0 0 0 0 0 0 0 0 0 0 0
0 0 0 0 0 0 0 0 0 0 0 0 0 0 0 0 0 0 0 0 0 0 0 0 0 0 0 0 0 0 0 0 0 0 0 0 0 0 0 0 0 0 0 0 0 0 0 0 0
0 0 0 0 0 0 0 0 0 0 0 0 0 0 0 0 0 0 0 0 0 0 0 0 0 0 0 0 0 0 0 0 0 0 0 0 0 0 0 0 0 0 0 0 0 0 0 0 0
0 0 0 0 0 0 0 0 0 0 0 0 0 0 0 0 0 0 0 0 2 3 2 1 1 1 0 0 0 0 0 0 0 0 0 0 0 0 0 0 0 0 0 0 0 0 0 0 0
0 0 0 0 0 0 0 0 0 0 0 0 0 0 0 0 0 0 0 1 6 10 7 2 2 2 1 1 0 0 0 0 0 0 0 0 0 0 0 0 0 0 0 0 0 0 0 0 0
0 0 0 0 0 0 0 0 0 0 0 0 0 0 0 0 0 0 1 6 18 28 21 11 7 4 3 1 0 0 0 0 0 0 0 0 0 0 0 0 0 0 0 0 0 0 0 0 0
0 0 0 0 0 0 0 0 0 0 0 0 0 0 0 0 0 0 5 20 42 52 45 34 21 10 5 3 1 0 0 0 0 0 0 0 0 0 0 0 0 0 0 0 0 0 0 0 0
0 0 0 0 0 0 0 0 0 0 0 0 0 0 0 0 0 1 12 41 69 75 70 63 45 24 15 10 3 0 0 0 0 0 0 0 0 0 0 0 0 0 0 0 0 0 0 0 0
0 0 0 0 0 0 0 0 0 0 0 0 0 0 0 0 0 5 25 59 83 88 86 82 67 47 37 25 8 0 0 0 0 0 0 0 0 0 0 0 0 0 0 0 0 0 0 0 0
0 0 0 0 0 0 0 0 0 0 0 0 0 0 0 1 6 23 50 70 81 86 90 88 78 65 55 42 20 5 1 0 0 0 0 0 0 0 0 0 0 0 0 0 0 0 0 0 0
0 0 0 0 0 0 0 0 0 0 0 0 0 0 0 2 17 49 75 79 72 73 82 86 77 60 50 44 28 10 2 0 0 0 0 0 0 0 0 0 0 0 0 0 0 0 0 0 0
0 0 0 0 0 0 0 0 0 0 0 0 0 0 0 2 18 51 75 74 64 61 67 74 67 46 35 31 21 9 2 0 0 0 0 0 0 0 0 0 0 0 0 0 0 0 0 0 0
0 0 0 0 0 0 0 0 0 0 0 0 0 0 0 1 9 31 54 58 58 63 58 53 47 33 21 14 7 2 0 0 0 0 0 0 0 0 0 0 0 0 0 0 0 0 0 0 0
0 0 0 0 0 0 0 0 0 0 0 0 0 0 0 0 3 17 30 36 50 65 55 31 20 15 9 5 2 0 0 0 0 0 0 0 0 0 0 0 0 0 0 0 0 0 0 0 0
0 0 0 0 0 0 0 0 0 0 0 0 0 0 0 0 2 7 11 14 28 45 38 16 5 4 3 3 1 0 0 0 0 0 0 0 0 0 0 0 0 0 0 0 0 0 0 0 0
0 0 0 0 0 0 0 0 0 0 0 0 0 0 0 0 0 1 1 1 7 14 12 6 3 2 0 1 0 0 0 0 0 0 0 0 0 0 0 0 0 0 0 0 0 0 0 0 0
0 0 0 0 0 0 0 0 0 0 0 0 0 0 0 0 0 0 0 0 0 0 0 1 2 1 0 0 0 0 0 0 0 0 0 0 0 0 0 0 0 0 0 0 0 0 0 0 0
0 0 0 0 0 0 0 0 0 0 0 0 0 0 0 0 0 0 0 0 0 0 0 0 1 0 0 0 0 0 0 0 0 0 0 0 0 0 0 0 0 0 0 0 0 0 0 0 0
0 0 0 0 0 0 0 0 0 0 0 0 0 0 0 0 0 0 0 0 0 0 0 0 1 0 0 0 0 0 0 0 0 0 0 0 0 0 0 0 0 0 0 0 0 0 0 0 0
Wind_Speed
6 4 2 2 4 4 1 1 2 0 2 3 5 10 7 4 2 3 6 9 13 12 11 12 16 15 14 14 13 13 13 12 11 12 12 12 11 10 11 11 11 12 12 13 13 14 13 11 11
4 2 3 3 4 3 1 1 3 2 5 9 8 7 6 3 1 8 9 11 14 12 10 10 16 14 14 14 13 13 14 13 12 13 13 12 11 10 11 11 10 11 12 13 13 14 14 12 11
4 1 4 4 3 1 3 4 4 1 9 8 4 3 4 3 3 6 9 14 13 11 9 10 14 14 14 13 13 13 14 14 14 13 13 12 12 11 11 11 10 11 12 12 12 12 13 11 10
1 3 5 4 2 4 3 5 5 3 4 4 5 4 4 2 5 7 14 13 12 11 8 11 15 13 13 13 13 13 14 14 13 13 13 12 12 11 11 10 10 12 12 12 11 11 11 10 9
3 5 5 3 2 5 6 2 6 3 4 3 5 5 3 2 9 13 13 11 10 9 7 9 14 13 13 13 13 13 13 13 13 13 13 12 11 11 11 10 9 10 11 11 10 9 8 7 7
4 5 4 3 5 7 8 3 2 5 7 6 9 5 2 5 12 13 11 9 10 9 7 7 12 13 13 13 13 13 13 13 13 13 12 12 11 10 10 9 8 9 8 9 9 8 6 4 5
4 5 4 2 6 7 4 3 3 6 6 6 9 6 3 4 10 12 10 9 9 9 7 5 5 8 11 12 12 13 14 13 13 12 11 12 11 10 9 9 8 8 9 9 7 6 4 2 4
5 6 3 2 7 7 3 5 2 5 3 6 7 7 6 8 11 11 8 6 7 6 6 5 5 5 5 6 11 13 13 13 13 12 11 11 11 10 9 7 7 8 10 10 7 4 2 1 2
4 5 4 7 6 7 5 4 4 2 4 2 1 4 11 10 14 11 6 4 5 5 5 5 4 5 5 4 8 11 12 13 11 9 10 9 4 4 5 5 7 8 9 8 7 6 4 2 1
4 3 3 3 2 4 8 7 4 2 4 4 6 9 11 12 15 12 10 9 8 8 7 6 7 5 5 5 4 4 5 6 5 5 5 4 3 3 5 7 9 8 8 7 6 4 2 2 1
5 5 4 4 5 3 6 10 6 1 3 7 11 13 10 11 15 12 11 12 11 9 9 8 7 7 6 4 4 3 3 4 4 5 5 4 3 2 3 2 3 3 4 2 2 1 1 2 2
3 5 4 5 6 2 2 5 3 1 1 10 16 17 15 13 15 14 13 10 10 10 10 10 9 9 6 6 5 4 4 4 4 5 5 4 3 3 3 2 2 2 2 2 1 2 3 4 4
3 3 4 2 3 3 5 8 1 4 7 5 12 14 15 15 14 13 12 13 12 10 11 12 11 10 8 6 4 3 4 5 5 5 5 6 5 4 4 3 3 3 2 2 2 1 3 6 5
4 4 3 5 7 9 6 8 1 8 15 6 8 14 15 15 16 12 11 13 13 13 14 13 12 11 9 7 7 5 4 3 4 4 5 7 6 5 4 3 4 4 3 3 3 4 4 5 4
3 3 0 7 7 6 9 4 3 7 7 7 2 4 6 11 12 14 16 16 15 16 15 15 13 11 11 9 8 6 5 5 5 5 5 6 6 6 6 5 4 4 4 4 4 4 4 4 4
2 1 1 3 5 3 5 4 3 3 4 7 9 8 8 7 11 13 16 17 15 15 16 15 12 12 11 10 8 6 6 5 5 4 4 6 7 6 5 5 6 5 5 4 5 4 3 3 3
1 2 1 1 2 3 1 6 4 2 0 2 5 8 16 14 10 13 17 17 17 17 16 14 13 14 12 10 9 7 6 5 5 3 4 5 6 5 3 4 5 6 5 5 4 2 3 3 3
1 2 1 2 3 2 3 7 8 4 2 2 3 1 10 17 14 7 15 18 17 16 14 13 13 13 11 7 5 4 5 4 4 4 5 5 4 3 4 4 4 4 4 4 3 3 1 2 4
5 4 5 4 4 4 6 8 11 7 4 6 6 4 1 7 13 7 15 18 16 14 14 12 14 12 10 6 5 4 4 4 3 4 5 5 5 3 3 4 4 4 4 5 6 4 3 1 2
3 1 4 3 2 3 5 10 12 8 6 5 7 8 10 13 12 7 12 17 18 16 14 14 15 12 10 7 5 4 3 2 2 2 3 4 4 4 4 5 4 4 3 4 5 5 4 3 3
4 4 4 4 2 2 4 7 6 6 6 5 4 6 10 14 14 9 10 15 19 19 17 15 13 11 10 8 5 4 4 3 2 1 2 3 4 4 5 5 5 4 4 5 5 5 6 5 3
4 4 3 2 3 2 3 6 6 3 3 3 4 7 9 8 3 5 4 5 9 14 16 15 12 10 9 9 7 6 4 4 4 3 3 3 4 5 5 5 5 5 4 4 4 4 4 5 6
2 7 6 4 3 2 1 2 7 6 5 6 9 10 7 7 3 5 6 5 4 3 5 11 11 9 8 8 8 6 4 3 2 2 3 4 4 4 4 5 5 5 4 4 3 4 4 4 4
9 6 5 3 3 2 3 3 6 14 17 17 12 9 11 10 8 10 6 1 5 6 5 4 9 7 7 7 6 6 6 5 3 3 3 2 2 2 4 5 5 6 6 5 4 4 5 5 4
3 3 3 4 1 3 2 3 8 15 19 19 20 16 12 4 3 8 11 2 1 5 1 4 6 5 6 7 6 6 6 6 6 6 5 4 3 3 5 5 5 4 5 5 5 5 5 5 5
4 5 5 4 3 3 1 2 7 11 16 18 17 18 22 20 18 13 5 9 8 8 3 4 5 5 6 6 5 5 5 4 4 5 5 5 4 4 4 5 5 6 5 4 4 4 5 5 4
5 2 2 3 0 1 4 6 2 14 19 23 19 19 16 12 12 13 15 10 10 16 13 7 8 6 5 5 4 4 4 5 4 3 4 3 3 3 4 4 4 5 5 5 5 4 6 6 6
6 4 2 1 5 4 0 1 4 11 15 20 19 13 11 7 7 9 8 9 13 0 5 4 4 5 5 3 3 4 4 6 5 4 5 5 5 4 5 5 4 3 3 4 3 2 3 4 5
7 5 2 2 2 4 3 0 3 8 13 18 19 13 13 12 5 3 3 6 8 5 1 5 7 7 5 5 4 3 4 6 5 3 4 5 5 5 6 5 4 5 4 4 3 2 2 3 4
5 1 2 2 1 1 3 4 1 5 8 14 18 17 18 18 12 7 5 11 9 7 6 7 5 4 5 5 4 4 4 3 4 5 4 5 6 6 6 5 5 5 5 5 4 4 3 3 4
Wind_Direction
303 303 102 69 58 62 49 170 148 167 24 45 72 93 101 77 92 147 158 154 137 147 156 158 151 151 145 140 136 135 138 135 134 129 127 127 121 113 109 107 102 98 95 94 94 94 94 97 97
320 352 74 57 67 81 279 223 140 189 115 110 93 97 79 58 52 125 138 152 145 147 150 153 155 156 149 145 141 140 136 133 131 130 133 133 124 117 112 106 105 104 100 98 98 96 95 96 95
312 17 64 53 53 165 187 223 190 195 131 142 109 68 85 116 136 145 152 149 143 144 146 156 157 156 151 148 145 145 136 136 132 131 135 133 126 120 112 108 106 108 107 103 99 98 98 97 95
5 40 47 53 358 276 207 203 200 158 104 94 101 63 48 141 158 144 141 144 141 141 145 158 152 153 151 148 147 145 142 139 136 135 139 139 135 127 118 114 110 111 114 110 103 98 94 94 95
65 70 56 52 291 288 307 198 159 130 88 68 89 83 44 66 120 131 144 144 135 132 143 148 144 149 151 150 150 149 150 144 142 143 141 143 139 130 122 119 116 113 116 116 111 101 91 86 83
48 66 70 30 320 301 296 279 105 85 115 118 108 105 80 114 125 142 149 139 132 129 125 135 144 148 153 154 154 154 154 149 148 146 147 147 141 135 129 126 124 120 124 127 124 116 110 92 70
85 73 74 36 303 296 284 335 115 130 151 158 137 104 139 156 145 150 153 133 131 131 129 123 136 152 157 159 159 157 157 154 151 151 154 145 143 142 137 133 136 137 134 131 136 138 132 91 41
113 98 108 164 262 265 305 341 161 130 118 136 134 138 175 179 147 151 141 121 124 128 134 137 143 142 140 157 164 161 161 157 156 160 157 146 149 150 142 139 150 144 137 140 153 163 150 86 55
100 99 164 195 229 279 331 336 287 116 93 112 140 141 153 147 137 139 108 100 124 138 141 145 146 141 143 160 168 162 165 159 158 162 156 143 138 141 137 149 165 157 150 152 166 182 185 134 73
113 130 198 209 229 281 315 335 303 80 82 45 64 108 132 129 144 150 152 160 164 165 162 163 160 152 152 166 155 154 159 149 148 148 140 132 140 157 160 166 171 169 161 166 176 184 208 93 31
146 165 180 214 245 291 331 322 305 147 135 168 155 150 154 143 159 164 172 172 172 172 170 169 165 157 162 161 149 155 144 144 150 154 155 152 153 169 156 163 170 175 171 183 157 0 312 186 173
162 188 188 201 214 197 243 283 299 341 230 171 166 164 166 167 170 171 177 177 171 174 173 165 168 165 167 154 159 161 157 160 166 169 163 156 155 163 165 171 171 190 192 197 104 356 2 109 126
180 207 221 226 196 224 282 274 261 0 348 140 162 171 178 180 182 183 173 174 173 170 170 174 165 167 164 153 154 157 168 172 177 172 166 160 161 169 176 180 183 203 193 198 127 124 99 101 114
194 201 266 52 43 13 349 270 147 347 355 52 160 189 192 193 185 180 175 175 173 170 174 174 170 168 164 165 166 161 168 171 173 178 176 173 172 173 181 187 190 204 192 188 160 153 129 119 114
184 219 119 46 10 12 353 282 100 300 348 64 57 228 221 224 196 180 182 181 174 171 173 176 174 165 165 169 172 164 173 173 181 192 185 178 170 178 188 184 198 202 189 181 151 141 125 124 122
333 284 209 27 11 22 26 259 156 282 21 48 39 7 349 282 224 189 181 183 177 170 174 180 171 162 167 169 172 174 177 173 181 192 187 188 175 180 181 171 192 180 163 151 145 145 136 138 141
313 251 217 313 18 331 36 256 262 287 302 15 38 23 13 337 260 199 179 179 178 176 175 173 163 165 169 171 174 173 170 172 177 169 196 201 193 186 155 165 185 166 155 147 143 152 150 157 170
223 325 288 235 238 277 251 256 274 269 259 299 301 310 25 359 315 225 177 176 178 176 174 161 161 167 161 154 150 143 143 153 156 180 198 195 201 181 155 153 192 185 161 150 145 123 152 167 177
164 218 256 246 203 234 244 257 270 268 287 297 286 266 5 357 330 267 176 175 172 169 171 161 163 168 154 137 136 160 158 158 174 197 194 181 170 162 160 150 165 193 187 170 163 142 145 173 152
161 214 271 270 186 263 273 267 266 261 247 240 294 331 336 330 318 265 173 170 170 168 167 163 169 165 160 154 148 151 142 157 158 177 178 170 165 169 175 170 163 193 180 170 176 160 151 170 181
204 199 214 237 335 356 320 284 268 258 233 210 237 288 275 268 247 211 174 173 173 168 170 167 165 158 155 140 122 95 89 77 70 110 176 180 195 203 195 193 171 181 181 188 192 184 167 159 154
243 210 126 76 36 331 14 299 294 295 287 257 240 242 245 286 227 174 154 157 198 180 160 154 149 150 152 144 145 154 158 160 176 175 190 213 209 209 199 195 177 178 183 203 205 178 188 169 162
150 100 105 111 96 318 273 254 295 2 331 288 253 233 227 224 176 104 63 38 10 11 115 134 135 144 145 146 151 148 139 142 149 154 187 230 224 222 211 195 170 158 177 208 222 195 196 204 173
126 100 65 56 71 295 240 213 360 8 357 340 312 266 246 225 202 142 120 226 216 134 120 146 125 128 126 131 141 144 151 153 151 166 185 214 230 239 230 196 178 172 189 194 189 198 208 208 182
92 106 38 348 313 236 283 95 59 9 2 356 359 349 342 306 268 122 121 104 330 62 75 134 113 137 145 148 157 162 168 170 178 186 177 187 192 215 226 202 183 183 201 197 194 195 214 213 194
263 149 168 212 236 291 316 94 87 1 345 354 9 23 34 20 19 18 20 166 189 130 207 163 148 191 166 165 179 182 174 177 185 190 176 195 198 205 220 205 189 186 192 196 207 204 216 216 207
339 82 143 159 105 34 356 31 24 3 354 350 358 14 20 22 30 16 13 348 183 168 189 180 166 189 186 184 195 225 199 180 170 180 177 188 188 189 186 168 174 170 167 180 194 213 214 202 203
358 6 9 194 168 176 136 51 283 346 347 341 340 348 342 329 33 20 24 341 310 341 128 130 152 202 198 193 226 234 195 177 165 168 171 179 175 169 160 175 179 185 177 181 176 205 217 212 211
3 30 355 158 141 153 147 110 354 328 337 341 328 338 334 322 16 3 309 285 277 322 143 165 204 201 184 186 203 192 150 162 171 186 176 173 170 179 186 188 196 220 214 201 184 199 203 228 239
93 70 1 69 341 279 135 147 93 333 3 347 332 346 351 335 305 260 252 269 267 238 201 196 212 223 203 184 173 179 171 186 203 210 196 181 187 192 197 199 201 214 216 210 202 214 217 233 255